Tracking 35331 objects as of 16-Sep-2026
HD Live streaming from Space Station
objects crossing your sky now

STARLINK-3864

Track STARLINK-3864 now!
10-day predictions
STARLINK-3864 is classified as:


NORAD ID: 52468
Int'l Code: 2022-049T
Launch date: May 6, 2022
Source: United States (US)
Launch site: AIR FORCE EASTERN TEST RANGE (AFETR)
Your satellite tracking list
Your tracking list is empty




NASA's NSSDC Master Catalog

Two Line Element Set (TLE):
1 52468U 22049T   26259.02996053 -.00001292  00000-0 -27112-4 0  9993
2 52468  53.1601 274.9639 0001084  86.1510 273.9617 15.34392267241113
Source of the keplerian elements: AFSPC